Hourly Data Report for October 05, 2017

All times are specified in Local Standard Time (LST). Add 1 hour to adjust for Daylight Saving Time where and when it is observed.

CHURCHILL
MANITOBA

58°44'21.000" N
94°03'59.000" W
29.30 m
5060595
71618
YYQ

Related Data

No related data is available for this station

Download Data

Hourly Data (October 2017)
Hourly Data Report for October 5, 2017
Temp Definition
°C
Dew Point Temp Definition
°C
Rel Hum Definition
%
Wind Dir Definition
10's deg

Wind Spd Definition
km/h
Visibility Definition
km
Stn Press Definition
kPa
Hmdx Definition


Wind Chill Definition


Weather Definition


TIME
00:00 Legend Double Dagger -0.1 -1.9 88 31 28 14.5 100.63   -6 Rain
01:00 Legend Double Dagger -0.1 -2.5 84 30 28 16.1 100.59   -6 Snow
02:00 Legend Double Dagger -0.2 -3.4 79 30 35 16.1 100.54   -7 LegendNANA
03:00 Legend Double Dagger -0.1 -3.5 78 30 28 16.1 100.50   -6 LegendNANA
04:00 Legend Double Dagger -0.4 -2.6 85 29 30 16.1 100.47   -7 Snow
05:00 Legend Double Dagger -0.1 -3.5 78 29 34 16.1 100.43   -7 LegendNANA
06:00 Legend Double Dagger -0.2 -3.8 77 29 34 16.1 100.37   -7 LegendNANA
07:00 Legend Double Dagger -0.2 -3.1 81 29 35 16.1 100.31   -7 LegendNANA
08:00 Legend Double Dagger 0.1 -3.3 78 30 39 16.1 100.30     LegendNANA
09:00 Legend Double Dagger 0.2 -3.7 75 31 46 16.1 100.26     LegendNANA
10:00 Legend Double Dagger 0.1 -3.2 79 31 41 16.1 100.26     LegendNANA
11:00 Legend Double Dagger 0.2 -3.6 76 32 43 16.1 100.26     LegendNANA
12:00 Legend Double Dagger 0.2 -4.6 70 31 39 16.1 100.24     LegendNANA
13:00 Legend Double Dagger 0.0 -4.7 71 31 41 16.1 100.26   -7 LegendNANA
14:00 Legend Double Dagger 0.9 -4.1 69 31 35 16.1 100.25     LegendNANA
15:00 Legend Double Dagger 0.3 -5.1 67 31 37 16.1 100.27     LegendNANA
16:00 Legend Double Dagger 0.2 -5.3 67 31 41 16.1 100.26     LegendNANA
17:00 Legend Double Dagger 0.3 -4.8 69 31 32 16.1 100.27     LegendNANA
18:00 Legend Double Dagger 0.3 -4.6 70 32 37 16.1 100.24     LegendNANA
19:00 Legend Double Dagger 0.4 -4.4 70 31 28 16.1 100.22     LegendNANA
20:00 Legend Double Dagger 0.1 -4.9 69 30 32 16.1 100.18     LegendNANA
21:00 Legend Double Dagger 0.0 -4.6 71 31 30 16.1 100.14   -6 LegendNANA
22:00 Legend Double Dagger -0.2 -4.5 73 31 21 16.1 100.08   -6 LegendNANA
23:00 Legend Double Dagger -0.4 -5.6 68 32 32 16.1 100.02   -7 LegendNANA

Notes on Data Quality.

Legend

  • E = Estimated
  • M = Missing
  • NA = Not Available
  • ‡ = Partner data that is not subject to review by the National Climate Archives
Date modified: